User: anonymous   Login
Location: Stoke Bliss
(52.2667°N, 2.5167°W)
Time: 15:17:59
(UTC+00:00)
Language:

USA 186 - Orbit

View from above orbital plane
View from above orbital plane
View from above satellite
View from above satellite

Ground track
Ground track

The orbit data is extracted from the following two-line orbital elements,

1 28888U 05042A   21138.08178263 0.00024000  00000-0  11203-3 0    04
2 28888  96.8901 176.9382 0144465  67.3000 292.6998 15.69254462    04
Epoch (UTC): 18 May 2021 01:57:46
Eccentricity: 0.0144465
inclination: 96.8901°
perigee height: 263 km
apogee height: 458 km
right ascension of ascending node: 176.9382°
argument of perigee: 67.3000°
revolutions per day: 15.69254462
mean anomaly at epoch: 292.6998°
orbit number at epoch: 0

The dashed part of the orbit path shows where the satellite is in the earth's shadow,  

DLR